N140JP SKBO-SKRG

Flight info

Callsign N140JP
Flight time 0h 27m
Altitude 24000
Route VASIL4U VASIL W36 NIRSO NIRSO3C
Aircraft C750/M-SBDE3FGHRWXY/S

Departure

Time 2026-05-05 01:52
Airport El Dorado International Airport (SKBO)

Arrival

Time 2026-05-05 02:19
Airport Jose Maria Córdova International Airport (SKRG)
Time Latitude Longitude Altitude Speed Heading
2026-05-05 01:31 4.70315 -74.14673 8362 ft 0 kts 306°
2026-05-05 01:43 4.70320 -74.14680 8363 ft 3 kts 306°
2026-05-05 01:43 4.70330 -74.14703 8362 ft 4 kts 276°
2026-05-05 01:43 4.70312 -74.14735 8362 ft 7 kts 217°
2026-05-05 01:44 4.70269 -74.14767 8362 ft 9 kts 217°
2026-05-05 01:44 4.70236 -74.14769 8362 ft 5 kts 127°
2026-05-05 01:44 4.70211 -74.14735 8362 ft 7 kts 128°
2026-05-05 01:44 4.70167 -74.14703 8362 ft 9 kts 190°
2026-05-05 01:45 4.70112 -74.14741 8362 ft 11 kts 219°
2026-05-05 01:45 4.70045 -74.14791 8362 ft 13 kts 216°
2026-05-05 01:45 4.69964 -74.14851 8362 ft 16 kts 217°
2026-05-05 01:45 4.69869 -74.14922 8362 ft 18 kts 217°
2026-05-05 01:46 4.69864 -74.14989 8362 ft 11 kts 304°
2026-05-05 01:46 4.69916 -74.15056 8362 ft 14 kts 307°
2026-05-05 01:46 4.69979 -74.15141 8362 ft 17 kts 307°
2026-05-05 01:46 4.70053 -74.15238 8362 ft 18 kts 306°
2026-05-05 01:47 4.70127 -74.15337 8362 ft 18 kts 307°
2026-05-05 01:47 4.70204 -74.15437 8362 ft 18 kts 307°
2026-05-05 01:47 4.70280 -74.15537 8362 ft 18 kts 308°
2026-05-05 01:47 4.70357 -74.15639 8362 ft 18 kts 306°
2026-05-05 01:48 4.70434 -74.15741 8362 ft 18 kts 308°
2026-05-05 01:48 4.70511 -74.15843 8362 ft 18 kts 307°
2026-05-05 01:48 4.70589 -74.15945 8362 ft 18 kts 307°
2026-05-05 01:48 4.70666 -74.16047 8362 ft 18 kts 307°
2026-05-05 01:49 4.70743 -74.16149 8362 ft 18 kts 307°
2026-05-05 01:49 4.70823 -74.16255 8362 ft 20 kts 307°
2026-05-05 01:49 4.70910 -74.16369 8362 ft 21 kts 307°
2026-05-05 01:49 4.71002 -74.16491 8362 ft 23 kts 307°
2026-05-05 01:50 4.71097 -74.16618 8362 ft 19 kts 307°
2026-05-05 01:50 4.71170 -74.16714 8362 ft 18 kts 307°
2026-05-05 01:50 4.71193 -74.16795 8362 ft 11 kts 237°
2026-05-05 01:50 4.71127 -74.16850 8360 ft 14 kts 216°
2026-05-05 01:51 4.71049 -74.16892 8360 ft 11 kts 178°
2026-05-05 01:51 4.71012 -74.16865 8359 ft 0 kts 126°
2026-05-05 01:51 4.71002 -74.16852 8360 ft 16 kts 126°
2026-05-05 01:52 4.70705 -74.16461 8362 ft 123 kts 127°
2026-05-05 01:52 4.70115 -74.15688 8879 ft 133 kts 127°
2026-05-05 01:52 4.69469 -74.14976 9335 ft 148 kts 133°
2026-05-05 01:52 4.68618 -74.14304 9678 ft 161 kts 142°
2026-05-05 01:53 4.67597 -74.13782 9898 ft 178 kts 160°
2026-05-05 01:53 4.66316 -74.13445 9768 ft 207 kts 179°
2026-05-05 01:53 4.64944 -74.14012 9608 ft 229 kts 220°
2026-05-05 01:53 4.64064 -74.15387 9682 ft 249 kts 245°
2026-05-05 01:54 4.63417 -74.16953 10716 ft 236 kts 246°
2026-05-05 01:54 4.62751 -74.18458 11437 ft 243 kts 243°
2026-05-05 01:54 4.61955 -74.20025 12118 ft 255 kts 241°
2026-05-05 01:54 4.61339 -74.21724 12762 ft 271 kts 256°
2026-05-05 01:55 4.60986 -74.23669 13140 ft 297 kts 260°
2026-05-05 01:55 4.60619 -74.25798 13509 ft 321 kts 259°
2026-05-05 01:55 4.60273 -74.28020 14345 ft 324 kts 265°
2026-05-05 01:55 4.60148 -74.30292 15120 ft 329 kts 266°
2026-05-05 01:56 4.60021 -74.32601 15857 ft 334 kts 266°
2026-05-05 01:56 4.59890 -74.34941 16605 ft 340 kts 266°
2026-05-05 01:56 4.59760 -74.37332 17396 ft 344 kts 267°
2026-05-05 01:56 4.59632 -74.39736 18217 ft 349 kts 267°
2026-05-05 01:57 4.59764 -74.42213 18583 ft 369 kts 278°
2026-05-05 01:57 4.60210 -74.44811 18628 ft 396 kts 282°
2026-05-05 01:57 4.60789 -74.47604 18637 ft 420 kts 286°
2026-05-05 01:57 4.62139 -74.50194 19174 ft 419 kts 307°
2026-05-05 01:58 4.63956 -74.52473 19940 ft 420 kts 312°
2026-05-05 01:58 4.65858 -74.54713 20625 ft 424 kts 312°
2026-05-05 01:58 4.67731 -74.57024 21327 ft 428 kts 310°
2026-05-05 01:58 4.69576 -74.59389 22027 ft 433 kts 310°
2026-05-05 01:59 4.71463 -74.61753 22755 ft 436 kts 311°
2026-05-05 01:59 4.73396 -74.64116 23413 ft 441 kts 311°
2026-05-05 01:59 4.75329 -74.66503 23999 ft 440 kts 311°
2026-05-05 01:59 4.77244 -74.68904 24163 ft 455 kts 310°
2026-05-05 02:00 4.79235 -74.71393 24164 ft 457 kts 310°
2026-05-05 02:00 4.81232 -74.73870 24166 ft 458 kts 310°
2026-05-05 02:00 4.83240 -74.76361 24163 ft 458 kts 310°
2026-05-05 02:00 4.85235 -74.78845 24173 ft 459 kts 310°
2026-05-05 02:01 4.87240 -74.81344 24168 ft 459 kts 310°
2026-05-05 02:01 4.89248 -74.83841 24168 ft 459 kts 310°
2026-05-05 02:01 4.91253 -74.86333 24169 ft 459 kts 310°
2026-05-05 02:01 4.93260 -74.88833 24092 ft 459 kts 310°
2026-05-05 02:02 4.95264 -74.91328 24075 ft 459 kts 310°
2026-05-05 02:02 4.97268 -74.93822 24061 ft 459 kts 310°
2026-05-05 02:02 4.99250 -74.96290 24049 ft 459 kts 310°
2026-05-05 02:02 5.01258 -74.98791 24035 ft 459 kts 310°
2026-05-05 02:03 5.03262 -75.01285 24159 ft 459 kts 310°
2026-05-05 02:03 5.05266 -75.03780 24159 ft 459 kts 310°
2026-05-05 02:03 5.07270 -75.06276 24163 ft 459 kts 310°
2026-05-05 02:03 5.09279 -75.08779 24190 ft 459 kts 310°
2026-05-05 02:04 5.11282 -75.11276 24189 ft 459 kts 310°
2026-05-05 02:04 5.13289 -75.13776 24199 ft 460 kts 310°
2026-05-05 02:04 5.15299 -75.16280 24209 ft 460 kts 310°
2026-05-05 02:04 5.17308 -75.18783 24196 ft 459 kts 310°
2026-05-05 02:05 5.19313 -75.21281 24211 ft 459 kts 310°
2026-05-05 02:05 5.21289 -75.23745 24218 ft 459 kts 310°
2026-05-05 02:05 5.23292 -75.26243 24220 ft 459 kts 310°
2026-05-05 02:05 5.25284 -75.28725 24105 ft 453 kts 310°
2026-05-05 02:06 5.27240 -75.31168 23512 ft 446 kts 310°
2026-05-05 02:06 5.29175 -75.33582 22917 ft 440 kts 310°
2026-05-05 02:06 5.31083 -75.35956 22312 ft 436 kts 310°
2026-05-05 02:06 5.33209 -75.38083 21678 ft 428 kts 325°
2026-05-05 02:07 5.35807 -75.39465 20781 ft 419 kts 343°
2026-05-05 02:07 5.38557 -75.40049 20226 ft 390 kts 357°
2026-05-05 02:07 5.41185 -75.40200 19753 ft 368 kts 359°
2026-05-05 02:07 5.43689 -75.40335 19276 ft 352 kts 359°
2026-05-05 02:08 5.46081 -75.40469 18796 ft 338 kts 359°
2026-05-05 02:08 5.48393 -75.40599 18345 ft 328 kts 359°
2026-05-05 02:08 5.50645 -75.40721 17885 ft 323 kts 360°
2026-05-05 02:08 5.52888 -75.40843 17466 ft 322 kts 359°
2026-05-05 02:09 5.55103 -75.40967 17047 ft 324 kts 359°
2026-05-05 02:09 5.57384 -75.41094 16618 ft 325 kts 359°
2026-05-05 02:09 5.59620 -75.41219 16193 ft 326 kts 359°
2026-05-05 02:09 5.61887 -75.41345 15745 ft 325 kts 359°
2026-05-05 02:10 5.64142 -75.41470 15315 ft 324 kts 359°
2026-05-05 02:10 5.66356 -75.41593 14893 ft 311 kts 359°
2026-05-05 02:10 5.68475 -75.41712 14495 ft 301 kts 359°
2026-05-05 02:10 5.70543 -75.41827 14093 ft 293 kts 360°
2026-05-05 02:11 5.72555 -75.41938 13682 ft 286 kts 360°
2026-05-05 02:11 5.74482 -75.42045 13323 ft 277 kts 360°
2026-05-05 02:11 5.76391 -75.42151 12950 ft 273 kts 360°
2026-05-05 02:11 5.78267 -75.42193 12729 ft 262 kts
2026-05-05 02:12 5.80048 -75.42177 12740 ft 246 kts
2026-05-05 02:12 5.83282 -75.42205 12452 ft 230 kts
2026-05-05 02:12 5.84896 -75.42109 12211 ft 235 kts
2026-05-05 02:13 5.86541 -75.42109 11971 ft 238 kts
2026-05-05 02:13 5.88179 -75.42121 11843 ft 231 kts
2026-05-05 02:13 5.89746 -75.42134 11581 ft 219 kts
2026-05-05 02:13 5.91239 -75.42146 11323 ft 211 kts
2026-05-05 02:14 5.92679 -75.42157 11081 ft 204 kts
2026-05-05 02:14 5.94075 -75.42168 10843 ft 197 kts
2026-05-05 02:14 5.95432 -75.42178 10625 ft 194 kts
2026-05-05 02:14 5.96768 -75.42187 10409 ft 190 kts
2026-05-05 02:15 5.98080 -75.42196 10198 ft 190 kts
2026-05-05 02:15 5.99407 -75.42205 9952 ft 192 kts
2026-05-05 02:15 6.00746 -75.42213 9719 ft 192 kts
2026-05-05 02:15 6.02085 -75.42222 9467 ft 192 kts
2026-05-05 02:16 6.03350 -75.42233 9217 ft 171 kts
2026-05-05 02:16 6.04495 -75.42242 9017 ft 159 kts
2026-05-05 02:16 6.05596 -75.42244 8829 ft 157 kts
2026-05-05 02:16 6.06702 -75.42250 8643 ft 160 kts
2026-05-05 02:17 6.07805 -75.42257 8445 ft 154 kts
2026-05-05 02:17 6.08845 -75.42266 8250 ft 145 kts
2026-05-05 02:17 6.09854 -75.42271 8070 ft 147 kts
2026-05-05 02:17 6.10872 -75.42276 7849 ft 149 kts
2026-05-05 02:18 6.11914 -75.42271 7637 ft 148 kts
2026-05-05 02:18 6.12933 -75.42289 7418 ft 147 kts
2026-05-05 02:18 6.13954 -75.42300 7216 ft 147 kts
2026-05-05 02:18 6.14979 -75.42301 7017 ft 148 kts
2026-05-05 02:19 6.15888 -75.42306 6975 ft 101 kts 360°
2026-05-05 02:19 6.16430 -75.42310 6979 ft 58 kts 360°
2026-05-05 02:19 6.16691 -75.42313 6991 ft 22 kts 359°
2026-05-05 02:19 6.16808 -75.42312 6996 ft 13 kts
2026-05-05 02:20 6.16857 -75.42336 6996 ft 7 kts 282°
2026-05-05 02:20 6.16857 -75.42398 6998 ft 8 kts 270°
2026-05-05 02:20 6.16857 -75.42458 7001 ft 8 kts 270°
2026-05-05 02:20 6.16887 -75.42501 7004 ft 7 kts 332°
2026-05-05 02:21 6.16923 -75.42523 7006 ft 6 kts 328°
2026-05-05 02:21 6.16960 -75.42546 7011 ft 7 kts 328°
2026-05-05 02:21 6.17011 -75.42577 7011 ft 10 kts 329°
2026-05-05 02:21 6.17084 -75.42617 7013 ft 13 kts 340°
2026-05-05 02:22 6.17176 -75.42618 7016 ft 14 kts 359°
2026-05-05 02:22 6.17261 -75.42621 7014 ft 8 kts 346°
2026-05-05 02:22 6.17313 -75.42668 7015 ft 13 kts 301°
2026-05-05 02:22 6.17363 -75.42758 7014 ft 16 kts 294°
2026-05-05 02:23 6.17392 -75.42858 7016 ft 14 kts 284°
2026-05-05 02:23 6.17398 -75.42932 7016 ft 9 kts 253°
2026-05-05 02:23 6.17410 -75.42989 7014 ft 8 kts 288°
2026-05-05 02:23 6.17415 -75.43017 7019 ft 0 kts 277°
2026-05-05 02:24 6.17405 -75.43031 7017 ft 5 kts 206°
2026-05-05 02:24 6.17370 -75.43037 7017 ft 0 kts 187°